SCP
0 0 0 0 0 0 0 0 0 0 0 0 0 0 0 0 0 0 0 0 0 0 0 0 0 0 0 0 0 0 0 0 0 0 0 0 0 0 0 0 0 0 0
0 0 0 0 0 0 0 0 0 0 0 0 0 0 0 0 0 0 0 0 0 0 0 0 0 0 0 0 0 0 0 0 0 0 0 0 0 0 0 0 0 0 0
0 0 0 0 0 0 0 0 0 0 0 0 0 0 0 0 0 0 0 0 0 0 0 0 0 0 0 0 0 0 0 0 0 0 0 0 0 0 0 0 0 0 0
0 0 0 0 0 0 0 0 0 0 0 0 0 0 0 0 0 0 0 0 0 0 0 0 0 0 0 0 0 0 0 0 0 0 0 0 0 0 0 0 0 0 0
0 0 0 0 0 0 0 0 0 0 0 0 0 0 0 0 0 0 0 0 0 0 0 0 0 0 0 0 0 0 0 0 0 0 0 0 0 0 0 0 0 0 0
0 0 0 0 0 0 0 0 0 0 0 0 0 0 0 0 0 0 0 0 0 0 0 0 0 0 0 0 0 0 0 0 0 0 0 0 0 0 0 0 0 0 0
-0 0 -0 0 0 0 -0 -0 -0 -0 -0 0 0 0 0 0 0 0 0 0 0 0 0 0 0 0 0 0 0 0 0 0 0 0 0 0 0 0 0 0 0 0 0
0 -0 -0 -0 -0 -0 -0 -0 -0 -0 0 0 0 0 0 0 0 0 0 0 0 0 0 0 0 0 0 0 0 0 0 0 0 0 0 0 0 0 0 0 0 0 0
0 0 0 -0 -0 -0 -0 -0 -0 -0 -0 -0 -0 -0 0 0 0 0 0 0 0 0 0 0 0 0 0 0 0 0 0 0 0 0 0 0 0 0 0 0 0 0 0
0 0 0 0 0 0 0 0 0 0 0 0 0 0 0 0 0 0 0 0 0 0 0 0 0 0 0 0 0 0 0 0 0 0 0 0 0 0 0 0 0 0 0
0 0 0 0 0 0 0 0 0 0 0 0 0 0 0 0 0 -0 -0 0 0 0 0 0 0 0 0 0 0 0 0 0 0 0 0 0 0 0 0 0 0 0 0
0 0 0 0 0 0 0 0 0 0 0 0 0 0 0 0 0 0 0 0 0 0 0 0 0 0 0 0 0 0 0 0 0 0 0 0 0 0 0 0 0 0 0
0 0 0 0 0 0 0 0 0 0 0 0 0 0 0 0 0 0 0 0 0 0 0 0 0 0 0 0 0 0 0 0 0 0 0 0 0 0 0 0 0 0 0
0 0 0 0 0 0 0 0 0 0 0 0 0 0 0 0 0 0 0 0 0 0 0 0 0 0 0 0 0 0 0 0 0 0 0 -0 0 0 0 0 0 0 0
0 0 0 0 0 0 0 0 0 0 0 0 0 0 0 0 0 0 0 0 0 0 0 0 0 0 0 0 0 0 0 0 0 0 0 0 0 0 0 0 0 0 0
0 0 0 0 0 0 0 0 0 0 0 0 0 0 0 0 0 0 0 0 0 0 0 0 0 0 0 0 0 0 0 0 0 0 0 0 0 0 0 0 0 0 0
0 0 0 0 0 0 0 0 0 0 0 0 0 0 0 0 0 0 0 0 0 0 0 0 0 0 0 0 0 0 0 0 0 0 0 0 0 0 0 0 0 0 0
0 0 0 0 0 0 0 0 0 0 0 0 0 0 0 0 0 0 0 0 0 0 0 0 0 0 0 0 0 0 0 0 0 0 0 0 0 0 0 0 0 0 0
0 0 0 0 0 0 0 0 0 0 0 0 0 0 0 0 0 0 0 0 0 0 0 0 0 0 0 0 0 0 0 0 0 0 0 0 0 0 0 0 0 0 0
0 0 0 0 0 0 0 0 0 0 0 0 0 0 0 0 0 0 0 0 0 0 0 0 0 0 0 0 0 0 0 0 0 0 0 0 0 0 0 0 0 0 0
0 0 0 0 0 0 0 0 0 0 0 0 0 0 0 0 0 0 0 0 0 0 0 0 0 0 0 0 0 0 0 0 0 0 0 0 0 0 0 0 0 0 0
0 0 0 0 0 0 0 0 0 0 0 0 0 0 0 0 0 0 0 0 0 0 0 0 0 0 0 0 0 0 0 0 0 0 0 0 0 0 0 0 0 0 0
0 0 0 0 0 0 0 0 0 0 0 0 0 0 0 0 0 0 0 0 0 0 0 0 0 0 0 0 0 0 0 0 0 0 0 0 0 0 0 0 0 0 0
0 0 0 0 0 0 0 0 0 0 0 0 0 0 0 0 0 0 0 0 0 0 0 0 0 0 0 0 0 0 0 0 0 0 0 0 0 0 0 0 0 0 0
0 0 0 0 0 0 0 0 0 0 0 0 0 0 0 0 0 0 0 0 0 0 0 0 0 0 0 0 0 0 0 0 0 0 0 0 0 0 0 0 0 0 0
0 0 0 0 0 0 0 0 0 0 0 0 0 0 0 0 0 0 0 0 0 0 0 0 0 0 0 0 0 0 0 0 0 0 0 0 0 0 0 0 0 0 0
Wind_Speed_500mb
21 20 21 22 25 29 34 37 41 45 50 55 59 63 64 64 62 64 69 74 80 83 86 88 91 86 84 81 82 85 92 90 105 108 100 97 91 89 84 83 76 71 69
25 23 22 25 28 32 37 42 46 52 57 64 69 72 71 70 68 67 70 72 76 80 82 84 86 78 78 76 80 85 89 89 93 100 92 92 91 85 80 74 68 67 65
28 28 28 31 34 36 40 44 49 56 58 61 65 69 72 73 72 72 73 75 77 77 76 77 72 71 75 73 72 76 81 83 83 90 90 91 86 79 76 71 68 60 53
28 31 34 37 40 43 45 48 50 52 55 57 58 63 65 68 71 74 77 79 80 79 76 70 71 70 71 70 72 73 74 79 78 78 82 80 79 75 67 60 57 48 48
36 39 41 42 44 48 51 53 54 55 56 58 61 61 63 66 66 67 69 73 76 76 73 69 65 68 68 69 70 73 72 71 73 72 75 76 74 69 66 57 47 43 42
44 47 50 53 54 56 59 62 65 68 66 64 63 66 66 66 67 69 70 71 70 72 75 70 67 68 68 70 72 73 74 71 71 68 66 69 65 57 49 45 47 47 39
57 59 63 66 69 72 74 77 81 81 79 77 72 68 69 72 71 70 66 69 70 70 67 64 68 67 67 67 67 70 73 67 62 59 54 47 42 37 35 38 40 42 44
67 69 72 76 78 79 81 83 85 89 89 86 83 77 73 66 69 72 67 65 63 61 61 62 65 63 58 61 62 60 58 52 44 39 31 26 22 21 26 27 29 29 27
67 69 70 72 76 79 82 84 86 90 91 91 89 85 78 70 65 64 61 57 59 57 59 60 59 57 54 54 53 47 39 33 23 18 13 12 17 21 16 19 19 16 20
61 64 67 71 75 79 82 85 86 86 88 86 84 81 81 80 72 62 54 55 56 56 57 58 55 54 48 39 34 25 21 17 15 20 20 33 23 25 19 15 10 11 19
59 61 64 67 73 77 82 85 89 89 88 84 78 71 68 68 66 65 57 48 50 53 54 50 42 32 20 14 11 14 14 20 24 25 27 27 26 21 15 12 12 9 13
65 67 67 71 76 80 85 86 85 83 81 78 75 70 66 61 55 49 44 42 43 41 37 29 17 13 18 15 16 20 21 25 32 29 26 20 11 7 7 5 8 12 17
67 68 71 75 77 78 83 85 83 77 75 76 73 71 65 55 46 36 24 24 24 18 11 8 18 27 27 28 35 34 31 31 31 19 13 7 4 6 6 8 13 15 16
76 75 74 78 80 79 78 79 79 76 75 71 67 59 49 37 24 17 14 10 1 12 21 21 29 35 32 34 29 32 35 30 21 6 4 8 6 7 11 14 14 15 16
85 85 83 84 84 82 74 71 70 67 63 59 49 41 33 19 14 11 3 5 12 20 31 28 33 32 31 31 27 24 17 10 4 8 11 11 11 14 14 16 18 20 21
88 87 86 86 86 83 76 71 55 54 41 35 27 23 13 11 20 11 11 17 21 22 26 28 27 27 25 23 20 15 10 10 9 10 13 15 16 17 19 20 21 20 21
84 85 85 83 82 81 70 56 51 39 30 18 7 5 13 22 22 19 24 24 23 20 23 25 22 19 17 15 13 12 11 11 11 12 14 16 17 18 20 21 21 21 21
82 82 83 81 76 71 60 47 38 35 31 19 17 19 23 24 25 23 21 17 16 15 15 16 15 13 11 8 6 4 3 7 11 14 17 20 22 22 23 23 23 24 25
80 79 77 75 71 61 52 42 41 42 36 30 24 24 33 33 27 19 16 14 14 13 12 12 11 9 5 1 2 6 9 12 15 18 19 20 21 22 21 21 22 22 24
75 74 71 70 64 56 48 45 50 54 46 41 35 33 31 25 21 22 21 20 19 16 13 10 6 4 5 7 9 11 13 16 17 18 19 19 21 21 21 20 21 22 23
73 71 65 62 57 54 50 49 55 56 50 45 39 37 27 24 28 27 25 23 19 16 11 9 9 8 10 11 13 15 17 18 18 19 19 19 20 21 21 22 23 23 24
67 65 60 56 51 48 48 48 56 55 52 46 41 33 31 32 28 26 23 19 16 12 12 11 11 14 15 17 19 18 18 18 18 18 18 19 20 21 22 22 22 22 22
56 54 52 49 45 42 46 48 55 55 53 47 38 33 29 30 29 25 21 17 14 14 15 16 19 18 18 19 18 18 17 16 16 16 16 17 19 19 19 19 20 22 24
46 44 42 39 35 38 42 49 54 53 52 48 43 38 34 30 27 21 18 16 18 19 19 21 21 19 17 17 17 17 16 15 15 15 16 18 18 18 20 22 24 25 24
35 34 32 30 32 37 42 52 53 52 50 45 38 34 31 27 23 21 20 22 20 21 24 22 19 17 16 16 16 16 16 16 16 17 19 22 22 22 22 24 25 26 27
26 25 24 25 30 33 41 49 49 49 45 39 34 31 25 23 22 22 23 23 24 24 22 19 17 16 15 15 15 16 18 18 19 20 22 24 26 26 26 27 27 26 28
Wind_Direction_500mb
352 346 336 323 311 303 300 295 294 294 293 295 298 299 299 295 286 277 272 271 269 270 271 273 273 275 276 278 277 277 275 272 275 281 281 281 278 277 276 275 268 261 256
349 343 334 326 318 312 307 303 299 297 296 296 297 298 298 298 295 288 283 279 276 274 273 272 273 274 277 275 276 276 275 274 275 281 284 280 282 280 277 271 263 260 253
338 334 331 327 322 318 312 310 308 306 305 304 303 301 298 297 296 293 288 284 281 279 276 274 273 273 275 277 277 279 278 278 276 279 280 279 280 277 273 267 259 255 253
336 331 328 327 325 324 322 320 318 314 310 306 304 302 299 296 294 292 290 287 283 281 279 274 274 274 275 276 276 275 278 278 278 278 275 276 274 273 266 256 250 251 250
344 340 338 338 334 332 330 328 325 322 319 315 311 306 301 297 295 291 286 284 282 280 278 277 274 274 275 274 272 273 275 275 274 272 271 271 268 265 262 259 249 245 231
342 338 336 334 333 329 327 326 324 323 321 320 317 311 307 302 298 292 288 283 279 278 277 276 272 270 270 271 271 271 272 272 270 270 270 268 270 268 260 247 233 220 213
332 329 326 324 322 320 319 318 317 317 316 317 317 315 312 310 305 300 292 284 280 277 275 273 275 275 276 275 272 269 270 270 266 266 267 271 272 267 253 230 229 216 212
324 323 322 319 316 315 313 312 312 312 312 312 312 312 310 308 303 301 296 289 284 278 275 277 278 280 277 273 270 267 265 265 265 268 264 262 269 259 232 218 201 196 212
320 321 320 320 319 318 317 314 313 311 311 311 311 311 310 310 305 299 294 288 284 282 280 278 278 278 274 271 268 265 260 260 254 240 217 176 149 148 170 175 190 219 231
317 315 314 314 313 312 312 313 312 311 308 308 307 308 309 309 310 307 297 293 286 283 280 276 274 272 271 267 258 249 238 222 187 160 150 135 134 130 124 132 147 210 228
312 311 311 311 309 309 309 309 309 309 308 306 304 306 307 308 309 307 303 293 287 283 280 273 270 266 252 208 197 179 176 167 155 143 136 118 118 120 126 155 181 206 250
309 309 310 309 308 308 307 308 308 309 307 306 304 304 307 309 307 302 292 284 280 280 279 271 252 167 143 141 141 130 136 151 142 131 128 122 119 128 153 195 257 278 283
309 310 310 309 309 308 307 306 306 306 306 306 305 305 305 303 300 290 283 288 292 286 255 202 155 139 121 116 113 110 119 145 143 120 113 76 357 311 262 261 281 286 283
308 307 307 306 307 306 305 305 305 304 305 304 303 301 297 295 285 268 283 296 74 135 128 125 132 126 119 116 119 120 120 126 135 141 360 332 303 268 290 292 294 291 285
303 303 302 302 304 305 303 304 304 303 302 302 301 293 287 284 220 227 258 118 115 128 134 132 134 131 120 120 126 129 134 154 210 299 311 293 286 291 291 294 296 295 292
299 301 301 300 300 302 304 303 303 300 299 295 294 283 256 183 179 187 130 118 122 131 151 147 143 144 144 148 159 171 218 259 268 272 271 278 289 295 298 294 290 289 287
298 298 298 296 297 300 303 299 298 289 282 275 273 220 175 164 169 153 134 121 119 128 138 136 143 149 156 167 183 207 233 256 271 282 292 300 302 301 295 291 290 290 284
296 294 291 293 294 295 293 288 275 267 261 235 188 163 157 161 159 158 151 146 138 145 148 149 153 168 178 183 195 219 271 298 299 301 302 302 300 296 292 290 292 288 281
293 291 289 289 289 290 281 270 247 236 237 224 200 183 166 170 168 164 173 178 181 179 166 164 167 172 173 193 292 310 311 308 308 306 305 301 297 293 295 294 290 288 288
293 289 286 286 287 282 266 255 241 235 234 222 208 195 177 171 186 196 198 195 196 192 190 187 195 227 263 280 300 310 313 313 308 304 305 305 303 302 301 302 302 301 301
292 289 287 282 280 272 260 253 241 234 229 220 214 198 186 200 199 195 196 191 189 190 206 229 248 269 290 302 307 308 308 307 304 303 299 300 302 306 308 309 307 305 300
289 286 284 281 276 263 258 256 240 230 221 215 204 190 191 185 184 188 190 197 206 219 239 257 279 286 292 300 301 300 297 293 290 291 298 300 301 303 304 303 303 302 299
289 286 282 278 269 255 255 253 231 222 214 206 197 189 188 197 193 196 203 216 230 252 264 276 280 285 291 291 290 292 291 291 294 298 300 301 300 302 306 310 309 304 300
287 284 280 273 261 252 247 240 221 211 204 199 194 196 199 198 200 208 224 243 256 263 274 280 281 285 286 288 292 292 294 298 299 302 302 301 306 313 314 308 300 297 296
290 286 280 272 259 245 233 218 208 201 200 198 195 195 199 204 214 228 246 253 262 273 275 279 282 281 282 285 288 294 299 302 303 301 302 302 304 304 300 294 291 291 290
300 293 283 266 247 232 217 206 201 198 196 194 193 199 207 223 235 248 257 266 272 275 275 272 271 275 280 284 291 299 304 305 301 300 299 296 294 293 292 289 287 284 282
Wind_Speed_850mb
21 20 21 22 25 29 34 37 41 45 50 55 59 63 64 64 62 64 69 74 80 83 86 88 91 86 84 81 82 85 92 90 105 108 100 97 91 89 84 83 76 71 69
25 23 22 25 28 32 37 42 46 52 57 64 69 72 71 70 68 67 70 72 76 80 82 84 86 78 78 76 80 85 89 89 93 100 92 92 91 85 80 74 68 67 65
28 28 28 31 34 36 40 44 49 56 58 61 65 69 72 73 72 72 73 75 77 77 76 77 72 71 75 73 72 76 81 83 83 90 90 91 86 79 76 71 68 60 53
28 31 34 37 40 43 45 48 50 52 55 57 58 63 65 68 71 74 77 79 80 79 76 70 71 70 71 70 72 73 74 79 78 78 82 80 79 75 67 60 57 48 48
36 39 41 42 44 48 51 53 54 55 56 58 61 61 63 66 66 67 69 73 76 76 73 69 65 68 68 69 70 73 72 71 73 72 75 76 74 69 66 57 47 43 42
44 47 50 53 54 56 59 62 65 68 66 64 63 66 66 66 67 69 70 71 70 72 75 70 67 68 68 70 72 73 74 71 71 68 66 69 65 57 49 45 47 47 39
57 59 63 66 69 72 74 77 81 81 79 77 72 68 69 72 71 70 66 69 70 70 67 64 68 67 67 67 67 70 73 67 62 59 54 47 42 37 35 38 40 42 44
67 69 72 76 78 79 81 83 85 89 89 86 83 77 73 66 69 72 67 65 63 61 61 62 65 63 58 61 62 60 58 52 44 39 31 26 22 21 26 27 29 29 27
67 69 70 72 76 79 82 84 86 90 91 91 89 85 78 70 65 64 61 57 59 57 59 60 59 57 54 54 53 47 39 33 23 18 13 12 17 21 16 19 19 16 20
61 64 67 71 75 79 82 85 86 86 88 86 84 81 81 80 72 62 54 55 56 56 57 58 55 54 48 39 34 25 21 17 15 20 20 33 23 25 19 15 10 11 19
59 61 64 67 73 77 82 85 89 89 88 84 78 71 68 68 66 65 57 48 50 53 54 50 42 32 20 14 11 14 14 20 24 25 27 27 26 21 15 12 12 9 13
65 67 67 71 76 80 85 86 85 83 81 78 75 70 66 61 55 49 44 42 43 41 37 29 17 13 18 15 16 20 21 25 32 29 26 20 11 7 7 5 8 12 17
67 68 71 75 77 78 83 85 83 77 75 76 73 71 65 55 46 36 24 24 24 18 11 8 18 27 27 28 35 34 31 31 31 19 13 7 4 6 6 8 13 15 16
76 75 74 78 80 79 78 79 79 76 75 71 67 59 49 37 24 17 14 10 1 12 21 21 29 35 32 34 29 32 35 30 21 6 4 8 6 7 11 14 14 15 16
85 85 83 84 84 82 74 71 70 67 63 59 49 41 33 19 14 11 3 5 12 20 31 28 33 32 31 31 27 24 17 10 4 8 11 11 11 14 14 16 18 20 21
88 87 86 86 86 83 76 71 55 54 41 35 27 23 13 11 20 11 11 17 21 22 26 28 27 27 25 23 20 15 10 10 9 10 13 15 16 17 19 20 21 20 21
84 85 85 83 82 81 70 56 51 39 30 18 7 5 13 22 22 19 24 24 23 20 23 25 22 19 17 15 13 12 11 11 11 12 14 16 17 18 20 21 21 21 21
82 82 83 81 76 71 60 47 38 35 31 19 17 19 23 24 25 23 21 17 16 15 15 16 15 13 11 8 6 4 3 7 11 14 17 20 22 22 23 23 23 24 25
80 79 77 75 71 61 52 42 41 42 36 30 24 24 33 33 27 19 16 14 14 13 12 12 11 9 5 1 2 6 9 12 15 18 19 20 21 22 21 21 22 22 24
75 74 71 70 64 56 48 45 50 54 46 41 35 33 31 25 21 22 21 20 19 16 13 10 6 4 5 7 9 11 13 16 17 18 19 19 21 21 21 20 21 22 23
73 71 65 62 57 54 50 49 55 56 50 45 39 37 27 24 28 27 25 23 19 16 11 9 9 8 10 11 13 15 17 18 18 19 19 19 20 21 21 22 23 23 24
67 65 60 56 51 48 48 48 56 55 52 46 41 33 31 32 28 26 23 19 16 12 12 11 11 14 15 17 19 18 18 18 18 18 18 19 20 21 22 22 22 22 22
56 54 52 49 45 42 46 48 55 55 53 47 38 33 29 30 29 25 21 17 14 14 15 16 19 18 18 19 18 18 17 16 16 16 16 17 19 19 19 19 20 22 24
46 44 42 39 35 38 42 49 54 53 52 48 43 38 34 30 27 21 18 16 18 19 19 21 21 19 17 17 17 17 16 15 15 15 16 18 18 18 20 22 24 25 24
35 34 32 30 32 37 42 52 53 52 50 45 38 34 31 27 23 21 20 22 20 21 24 22 19 17 16 16 16 16 16 16 16 17 19 22 22 22 22 24 25 26 27
26 25 24 25 30 33 41 49 49 49 45 39 34 31 25 23 22 22 23 23 24 24 22 19 17 16 15 15 15 16 18 18 19 20 22 24 26 26 26 27 27 26 28
Wind_Direction_850mb
352 346 336 323 311 303 300 295 294 294 293 295 298 299 299 295 286 277 272 271 269 270 271 273 273 275 276 278 277 277 275 272 275 281 281 281 278 277 276 275 268 261 256
349 343 334 326 318 312 307 303 299 297 296 296 297 298 298 298 295 288 283 279 276 274 273 272 273 274 277 275 276 276 275 274 275 281 284 280 282 280 277 271 263 260 253
338 334 331 327 322 318 312 310 308 306 305 304 303 301 298 297 296 293 288 284 281 279 276 274 273 273 275 277 277 279 278 278 276 279 280 279 280 277 273 267 259 255 253
336 331 328 327 325 324 322 320 318 314 310 306 304 302 299 296 294 292 290 287 283 281 279 274 274 274 275 276 276 275 278 278 278 278 275 276 274 273 266 256 250 251 250
344 340 338 338 334 332 330 328 325 322 319 315 311 306 301 297 295 291 286 284 282 280 278 277 274 274 275 274 272 273 275 275 274 272 271 271 268 265 262 259 249 245 231
342 338 336 334 333 329 327 326 324 323 321 320 317 311 307 302 298 292 288 283 279 278 277 276 272 270 270 271 271 271 272 272 270 270 270 268 270 268 260 247 233 220 213
332 329 326 324 322 320 319 318 317 317 316 317 317 315 312 310 305 300 292 284 280 277 275 273 275 275 276 275 272 269 270 270 266 266 267 271 272 267 253 230 229 216 212
324 323 322 319 316 315 313 312 312 312 312 312 312 312 310 308 303 301 296 289 284 278 275 277 278 280 277 273 270 267 265 265 265 268 264 262 269 259 232 218 201 196 212
320 321 320 320 319 318 317 314 313 311 311 311 311 311 310 310 305 299 294 288 284 282 280 278 278 278 274 271 268 265 260 260 254 240 217 176 149 148 170 175 190 219 231
317 315 314 314 313 312 312 313 312 311 308 308 307 308 309 309 310 307 297 293 286 283 280 276 274 272 271 267 258 249 238 222 187 160 150 135 134 130 124 132 147 210 228
312 311 311 311 309 309 309 309 309 309 308 306 304 306 307 308 309 307 303 293 287 283 280 273 270 266 252 208 197 179 176 167 155 143 136 118 118 120 126 155 181 206 250
309 309 310 309 308 308 307 308 308 309 307 306 304 304 307 309 307 302 292 284 280 280 279 271 252 167 143 141 141 130 136 151 142 131 128 122 119 128 153 195 257 278 283
309 310 310 309 309 308 307 306 306 306 306 306 305 305 305 303 300 290 283 288 292 286 255 202 155 139 121 116 113 110 119 145 143 120 113 76 357 311 262 261 281 286 283
308 307 307 306 307 306 305 305 305 304 305 304 303 301 297 295 285 268 283 296 74 135 128 125 132 126 119 116 119 120 120 126 135 141 360 332 303 268 290 292 294 291 285
303 303 302 302 304 305 303 304 304 303 302 302 301 293 287 284 220 227 258 118 115 128 134 132 134 131 120 120 126 129 134 154 210 299 311 293 286 291 291 294 296 295 292
299 301 301 300 300 302 304 303 303 300 299 295 294 283 256 183 179 187 130 118 122 131 151 147 143 144 144 148 159 171 218 259 268 272 271 278 289 295 298 294 290 289 287
298 298 298 296 297 300 303 299 298 289 282 275 273 220 175 164 169 153 134 121 119 128 138 136 143 149 156 167 183 207 233 256 271 282 292 300 302 301 295 291 290 290 284
296 294 291 293 294 295 293 288 275 267 261 235 188 163 157 161 159 158 151 146 138 145 148 149 153 168 178 183 195 219 271 298 299 301 302 302 300 296 292 290 292 288 281
293 291 289 289 289 290 281 270 247 236 237 224 200 183 166 170 168 164 173 178 181 179 166 164 167 172 173 193 292 310 311 308 308 306 305 301 297 293 295 294 290 288 288
293 289 286 286 287 282 266 255 241 235 234 222 208 195 177 171 186 196 198 195 196 192 190 187 195 227 263 280 300 310 313 313 308 304 305 305 303 302 301 302 302 301 301
292 289 287 282 280 272 260 253 241 234 229 220 214 198 186 200 199 195 196 191 189 190 206 229 248 269 290 302 307 308 308 307 304 303 299 300 302 306 308 309 307 305 300
289 286 284 281 276 263 258 256 240 230 221 215 204 190 191 185 184 188 190 197 206 219 239 257 279 286 292 300 301 300 297 293 290 291 298 300 301 303 304 303 303 302 299
289 286 282 278 269 255 255 253 231 222 214 206 197 189 188 197 193 196 203 216 230 252 264 276 280 285 291 291 290 292 291 291 294 298 300 301 300 302 306 310 309 304 300
287 284 280 273 261 252 247 240 221 211 204 199 194 196 199 198 200 208 224 243 256 263 274 280 281 285 286 288 292 292 294 298 299 302 302 301 306 313 314 308 300 297 296
290 286 280 272 259 245 233 218 208 201 200 198 195 195 199 204 214 228 246 253 262 273 275 279 282 281 282 285 288 294 299 302 303 301 302 302 304 304 300 294 291 291 290
300 293 283 266 247 232 217 206 201 198 196 194 193 199 207 223 235 248 257 266 272 275 275 272 271 275 280 284 291 299 304 305 301 300 299 296 294 293 292 289 287 284 282